Location: Muttontown
(40.8240°N, 73.5476°W)
Time: 02:27:24
(UTC+00:00)

Daily predictions for brighter satellites

Satellite Brightness Start Highest point End
(mag) Time Altitude Azimuth Time Altitude Azimuth Time Altitude Azimuth
CENTAUR R/B 3.4 00:31:27 10° NW 00:39:47 85° NE 00:48:46 10° SE
Cosmos 1825 Rocket 3.5 00:39:44 10° S 00:44:03 73° E 00:48:23 10° NNE
Cosmos-2242 3.0 00:39:53 10° N 00:44:11 79° E 00:48:25 10° S
RESURS DK-1 4.3 00:44:48 10° ESE 00:46:10 11° E 00:47:31 10° E
Cosmos 1634 Rocket 4.1 00:43:55 10° N 00:50:11 64° E 00:56:20 10° SSE
In-Cosmos 22 Rocket 4.1 00:46:04 10° S 00:51:21 83° E 00:56:43 10° N
USA 238 DEB 4.1 00:47:06 10° NW 00:54:27 81° WSW 01:02:05 10° SSE
USA 238 4.1 00:47:12 10° NW 00:54:34 82° WSW 01:02:12 10° SSE
Cosmos 44 Rocket 4.1 00:51:13 10° S 00:55:47 33° ESE 01:00:27 10° NE
IRIS 4.0 00:53:18 10° W 00:55:47 83° N 00:59:15 10° E
ISS -0.9 00:56:52 10° NNW 00:58:35 13° N 01:00:18 10° NNE
IRS-1A Rocket 4.3 00:57:13 10° SSE 01:02:44 73° ENE 01:08:14 10° N
Ariane Rocket 3.0 00:58:44 10° SSE 01:03:46 68° ENE 01:08:49 10° N
ERS-2 2.1 01:02:13 10° NNE 01:05:50 62° ESE 01:09:25 10° S
SEDSat Delta rocket 4.5 01:05:02 10° SSW 01:07:38 17° SSE 01:09:40 12° SE
Helios 1A Rocket 3.7 01:03:44 10° S 01:07:40 53° W 01:11:38 10° NNW
OAO 2 Rocket 3.8 01:05:35 10° WSW 01:10:21 43° S 01:14:32 13° ESE
Cosmos 2221 3.2 01:12:02 10° N 01:16:03 37° ENE 01:19:20 14° SE
MOS 1 4.4 01:10:31 10° SSE 01:16:12 85° WSW 01:21:53 10° NNW
Cosmos 1242 Rocket 2.6 01:13:04 10° N 01:16:40 61° E 01:19:51 12° SSE
USA 307 3.2 01:13:52 10° NW 01:18:05 61° SW 01:21:34 14° SSE
BREEZE-M DEB (TANK) 2.9 01:15:43 10° SSW 01:18:38 53° SE 01:26:52 10° ENE
Cosmos 1697 Rocket 3.0 01:17:41 10° NNW 01:23:16 55° ENE 01:27:44 16° SE
Meteor 2-13 Rocket 4.4 01:20:16 10° S 01:26:22 81° E 01:32:29 10° N
Terra 3.9 01:25:53 10° E 01:28:16 14° ENE 01:30:39 10° NNE
Cosmos 2082 Rocket 2.4 01:23:19 10° S 01:28:38 46° ESE 01:34:01 10° NE
ERBS 4.1 01:28:20 10° NNW 01:30:52 21° NE 01:32:57 12° E
IGS 5A 3.4 01:27:47 12° SSE 01:31:35 84° ENE 01:35:45 10° N
Hubble Space Telescope 2.7 01:29:39 10° SSW 01:31:41 13° S 01:31:56 13° SSE
Cosmos 1833 Rocket 2.8 01:26:46 10° SSW 01:32:24 80° WNW 01:38:05 10° NNE
SPOT 3 Rocket 3.6 01:28:49 14° SSE 01:33:21 68° ENE 01:38:34 10° N
Cosmos 1606 3.3 01:30:46 10° N 01:34:19 39° ENE 01:36:14 22° SE
USA 305 3.8 01:30:50 10° WNW 01:34:45 39° SW 01:37:38 16° SSE
USA 308 3.7 01:30:51 10° WNW 01:34:53 43° SW 01:37:46 17° SSE
Cosmos 773 Rocket 3.9 01:32:25 10° S 01:37:35 66° ESE 01:42:44 10° NNE
Cosmos 2279 Rocket 4.1 01:40:22 10° N 01:46:33 75° W 01:52:42 10° S
Cosmos 2151 3.8 01:47:17 25° SE 01:48:43 32° E 01:52:30 10° NNE
Landsat 7 4.1 01:49:11 14° S 01:53:12 68° WSW 01:57:57 10° NNW
Cosmos 2058 3.9 01:51:19 10° SSW 01:55:19 46° W 01:59:23 10° N
COSMOS 2406 3.9 01:50:05 10° SW 01:55:39 57° WNW 02:01:16 10° NNE
Cosmos 1842 Rocket 3.6 01:51:48 10° N 01:56:17 80° W 01:59:20 20° S
GP-B 4.0 01:52:24 10° NNE 01:56:20 30° E 01:57:25 27° ESE
Meteor 2-3 Rocket 4.4 01:54:12 24° SE 01:56:44 36° E 02:01:53 10° NNE
Cosmos 1825 4.3 01:53:34 10° SW 01:56:45 26° WNW 01:59:58 10° NNW
Cosmos 2369 3.7 01:52:27 10° NNW 01:58:07 74° ENE 02:01:22 26° SSE
ERS-1 Rocket 3.6 02:00:52 27° ESE 02:03:04 42° ENE 02:07:47 10° N
Spot 2 Rocket 3.6 02:01:35 28° SE 02:04:15 63° ENE 02:09:19 10° N
Cosmos 1076 Rocket 3.5 02:02:52 18° S 02:06:03 87° WNW 02:10:25 10° N
ATLAS 2AS CENTAUR R/B 3.4 02:00:13 10° SW 02:08:05 68° NW 02:15:51 10° NNE
Cosmos 1980 Rocket 2.2 02:03:48 10° NNW 02:09:24 67° ENE 02:12:06 31° SE
Resurs 01 Rocket 3.0 02:08:50 12° SSW 02:12:34 35° W 02:16:38 10° NNW
Nadezhda 4 Rocket 4.0 02:07:55 11° S 02:13:55 83° W 02:20:10 10° N
Cosmos 2322 Rocket 4.1 02:12:39 10° N 02:16:28 18° NE 02:19:11 13° E
Cosmos 1538 Rocket 3.9 02:13:44 18° S 02:17:42 75° ESE 02:22:54 10° NNE
Cosmos 158 Rocket 4.0 02:18:29 33° SSE 02:20:32 56° ESE 02:25:38 10° NNE
RESURS DK-1 2.9 02:19:32 10° SW 02:23:37 58° WNW 02:27:44 10° NNE
Cosmos 2098 Rocket 3.3 02:22:42 28° SW 02:23:44 40° WNW 02:26:42 10° N
USA 267 3.1 02:19:12 10° NE 02:25:45 72° SE 02:32:17 10° SW
GENESIS II 4.4 02:21:57 10° NW 02:25:48 62° WSW 02:26:31 50° S
USA 245 4.4 02:22:59 24° S 02:26:28 62° WSW 02:31:22 10° NNW
Meteor 2-19 Rocket 4.3 02:22:44 23° S 02:26:44 85° E 02:32:49 10° N
Cosmos 1271 Rocket 3.4 02:24:07 10° N 02:27:52 40° ENE 02:28:02 40° E
BREEZE-M DEB (TANK) 4.2 02:25:09 10° NW 02:29:01 72° NNE 02:36:58 21° ESE
ATLAS 3B R/B 3.0 02:22:02 10° NNW 02:29:08 65° NE 02:32:46 32° SE
Cosmos 1633 4.1 02:29:09 16° SW 02:31:34 33° WNW 02:34:53 10° NNW
SPOT 1/Viking Rocket 4.3 02:28:26 21° SSW 02:31:37 46° W 02:36:37 10° NNW
ISS -1.5 02:33:46 10° NNW 02:36:23 20° NNE 02:37:38 17° NE
Cosmos 1428 Rocket 4.4 02:37:00 34° S 02:39:50 76° E 02:45:58 10° N
ARIANE 5 R/B 2.8 02:38:33 43° SSW 02:39:53 67° WSW 02:44:22 10° NNW
Cosmos 1933 3.1 02:36:36 10° N 02:40:41 85° E 02:41:03 72° SSE
SL-16 R/B 3.2 02:36:46 10° N 02:41:57 35° ENE 02:43:41 29° E
SPOT 5 2.6 02:44:08 55° S 02:45:00 75° W 02:49:20 10° NNW
Cosmos 1553 Rocket 4.4 02:41:36 10° N 02:47:22 44° ENE 02:48:47 38° ESE
Cosmos 304 Rocket 3.9 02:42:57 10° NNW 02:47:42 58° ENE 02:48:21 52° ESE
USA 234 4.2 02:53:40 18° E 02:58:08 42° NNE 03:04:13 10° NW
Meteor 1-26 Rocket 4.3 02:56:48 10° NNW 03:02:48 80° W 03:04:29 49° S
Cosmos 371 Rocket 3.7 02:59:41 10° NNW 03:04:21 51° WSW 03:05:07 46° SW
Cosmos 923 Rocket 3.9 03:03:16 56° S 03:04:27 85° ESE 03:09:50 10° NNE
Terra 1.9 03:04:43 58° SSW 03:05:25 68° WSW 03:10:11 10° NNW
ERBS 4.2 03:04:00 10° WNW 03:05:39 24° W 03:05:39 24° W
Cosmos 1862 4.3 03:12:08 38° NE 03:12:08 38° NE 03:14:52 10° NNE
Cosmos 2082 Rocket 4.2 03:08:15 10° WSW 03:12:55 26° NW 03:17:39 10° N
S3M 4.3 03:08:36 10° N 03:14:48 50° ENE 03:15:54 45° ESE
Cosmos 2278 4.4 03:09:45 10° NW 03:15:05 44° WSW 03:16:22 38° SW
Cosmos 1766 Rocket 3.7 03:18:52 69° W 03:18:56 69° W 03:23:20 10° N
Meteor 2-14 Rocket 4.3 03:17:55 57° S 03:19:16 83° E 03:25:27 10° N
Cosmos 2056 Rocket 4.3 03:14:47 10° N 03:19:50 40° ENE 03:20:20 39° ENE
Cosmos 1812 3.6 03:16:31 10° N 03:19:23 46° NNE 03:19:23 46° NNE
Cosmos 1782 3.6 03:19:43 10° NNW 03:23:15 48° WNW 03:23:15 48° WNW
Cosmos 2333 Rocket 4.1 03:21:42 10° N 03:25:37 19° NE 03:27:40 16° ENE
Gbstr 26 Del rocket 4.1 03:24:21 10° NW 03:27:57 35° NNE 03:28:19 34° NE
Cosmos 2360 Rocket 3.0 03:26:57 10° N 03:32:14 39° ENE 03:33:01 37° E
Cosmos 1328 Rocket 3.9 03:30:04 10° NNW 03:34:03 64° NW 03:34:03 64° NW
Cosmos 2112 Rocket 4.0 03:38:50 68° WSW 03:39:21 74° WNW 03:44:40 10° NNE
Cosmos 1371 Rocket 4.1 03:35:31 10° NNW 03:40:53 68° ENE 03:40:56 68° ENE
Cosmos 1680 Rocket 3.9 03:40:31 51° WSW 03:41:28 60° WNW 03:46:42 10° NNE
Cosmos 1151 Rocket 4.1 03:40:59 10° NNW 03:44:42 38° W 03:44:42 38° W
Cosmos 1980 Rocket 4.2 03:49:23 10° WNW 03:52:46 16° W 03:53:53 16° WSW
BREEZE-M DEB (TANK) 3.9 03:49:38 10° WNW 03:54:12 60° SSW 03:55:45 52° S
Cosmos 2322 Rocket 2.2 03:55:30 10° NNW 04:00:58 72° W 04:00:58 72° W
Cosmos 1500 Rocket 4.4 04:05:32 48° N 04:05:32 48° N 04:08:46 10° N
USA 267 4.5 04:02:29 10° NE 04:08:28 40° NNW 04:14:27 10° W
ISS -0.7 04:10:10 10° NW 04:10:34 13° NW 04:10:34 13° NW
Cosmos 2315 Rocket 3.9 04:10:55 10° N 04:17:14 82° E 04:17:33 79° SE
ATLAS 3B R/B 4.0 04:13:33 10° NW 04:19:23 27° WSW 04:20:00 27° WSW
Cosmos 292 Rocket 4.3 04:14:38 10° NNW 04:18:26 55° N 04:18:26 55° N
Cosmos 2237 4.4 04:15:09 10° NNW 04:20:24 64° W 04:20:24 64° W
Spot 4 4.5 04:22:24 50° WNW 04:22:24 50° WNW 04:26:16 10° NNW
Meteor 1-27 Rocket 3.7 04:17:10 10° NNW 04:22:32 78° WNW 04:22:32 78° WNW
COSMOS 2428 3.8 04:18:18 10° N 04:23:27 34° ENE 04:24:20 32° ENE
Cosmos 2333 4.5 04:18:00 10° NNW 04:23:31 57° ENE 04:23:31 57° ENE
Cosmos 2228 Rocket 4.1 04:19:29 10° N 04:22:34 45° N 04:22:34 45° N
SL-16 R/B 3.3 04:20:57 10° NW 04:25:32 33° W 04:25:32 33° W
Cosmos 2219 Rocket 2.8 04:23:56 10° NNW 04:29:17 44° ENE 04:29:34 44° ENE
Thor Agena Rocket 4.5 04:31:07 10° NNE 04:34:44 38° ENE 04:34:44 38° ENE
Cosmos 1420 Rocket 4.5 04:32:49 10° NNW 04:37:14 55° WNW 04:37:14 55° WNW
USA 234 3.2 04:41:00 66° SW 04:41:00 66° SW 04:47:26 10° NW
COSMOS 2455 2.8 04:44:29 79° NE 04:44:29 79° NE 04:50:10 10° NNE
Sich 1 4.2 04:45:43 41° N 04:45:43 41° N 04:48:39 10° N
Cosmos 489 Rocket 4.4 04:48:18 78° E 04:48:18 78° E 04:54:32 10° NNE
BREEZE-M DEB (TANK) 3.9 04:36:33 10° WSW 04:48:55 88° NNW 04:52:54 10° ENE
Nimbus 7 Rocket 4.3 04:46:02 10° NNE 04:52:06 81° WNW 04:52:08 81° W
Cosmos 1452 Rocket 3.8 04:47:37 10° NNW 04:52:03 64° NNW 04:52:03 64° NNW
Meteor 1-20 Rocket 4.3 04:53:51 68° NW 04:53:51 68° NW 04:59:05 10° N
ALOS 2 4.1 04:56:16 31° NW 04:56:16 31° NW 04:58:54 10° NNW
Cosmos 1745 Rocket 4.3 05:00:51 54° E 05:00:51 54° E 05:06:54 10° NNE
Meteor 1-18 Rocket 4.4 04:55:54 10° N 05:01:37 67° ENE 05:01:37 67° ENE
Geosat 4.3 05:05:50 63° N 05:05:50 63° N 05:10:12 10° NNW
ATLAS 5 CENTAUR R/B 3.5 05:04:47 10° NNW 05:10:01 38° NE 05:12:56 25° E
Cosmos 2333 Rocket 2.4 05:04:50 10° NNW 05:09:38 61° WNW 05:09:38 61° WNW
Cosmos 2360 Rocket 3.6 05:11:16 10° NW 05:14:45 26° W 05:14:45 26° W
Lacrosse 5 3.9 05:18:45 17° E 05:18:45 17° E 05:20:23 10° ENE
Resurs 1-4 Rocket 4.0 05:18:46 10° NE 05:22:21 19° E 05:22:21 19° E
Cosmos 1110 Rocket 4.3 05:19:33 10° NNW 05:24:10 67° N 05:24:10 67° N
Nadezhda 1 Rocket 3.9 05:18:32 10° N 05:24:59 78° E 05:25:20 75° ESE
Cosmos 2322 4.2 05:20:03 10° NNW 05:24:37 49° WNW 05:24:37 49° WNW
Cosmos 1386 Rocket 4.4 05:26:53 83° SSE 05:27:06 86° E 05:33:34 10° N
NOSS 3-1 (C) 4.1 05:22:13 10° NW 05:29:58 71° WSW 05:31:18 62° S
Meteor 1-14 Rocket 4.2 05:33:56 73° NW 05:33:56 73° NW 05:39:08 10° N
Cosmos 1331 Rocket 4.3 05:29:44 10° NNW 05:34:07 63° NNW 05:34:07 63° NNW
Cosmos 2297 Rocket 2.6 05:37:04 51° E 05:37:04 51° E 05:42:03 10° NNE
USA 229 DEB 3.8 05:33:57 10° NW 05:41:24 90° SSW 05:43:12 58° SSE
USA 229 3.8 05:34:03 10° NW 05:41:30 89° ENE 05:43:21 57° SE
Cosmos 2237 Rocket 2.7 05:38:08 10° NNW 05:43:40 52° ENE 05:44:36 47° E
Cosmos 2227 Rocket 2.7 05:47:43 48° E 05:47:43 48° E 05:52:47 10° NE
ASTEX 1 4.1 05:50:13 46° ENE 05:50:13 46° ENE 05:54:48 10° N
Meteor 2-4 Rocket 4.0 05:54:39 10° NNW 06:00:14 58° W 06:00:14 58° W
CZ-2D R/B 2.9 05:55:44 10° NNE 06:00:48 41° E 06:01:02 41° ESE
Cosmos 1269 Rocket 4.1 06:01:46 74° NNW 06:01:46 74° NNW 06:06:44 10° NNE
NOSS 3-1 (A) 4.0 05:54:05 10° NW 06:01:51 73° WSW 06:04:02 53° S
Cosmos 1869 Rocket 4.4 06:02:38 47° NE 06:02:38 47° NE 06:06:15 10° NNE
ADEOS II 3.9 05:59:02 10° NE 06:02:50 20° E 06:03:49 19° ESE
Cosmos 1340 Rocket 4.2 06:07:38 34° NNW 06:07:38 34° NNW 06:10:01 10° N
SL-16 R/B 3.9 06:02:23 10° N 06:07:19 30° NE 06:12:02 11° ESE
COSMOS 2428 3.8 06:02:34 10° NW 06:06:19 31° WNW 06:06:19 31° WNW
Cosmos 2219 Rocket 3.8 06:08:27 10° NW 06:11:15 22° WNW 06:11:15 22° WNW
Cosmos 2263 Rocket 4.4 06:12:47 12° ESE 06:14:29 13° E 06:17:04 10° ENE
Timation 1 Rocket 4.3 06:15:47 64° SE 06:16:13 66° ESE 06:22:09 10° NNE
Helios 1A 3.7 06:17:21 50° NNW 06:17:21 50° NNW 06:20:30 10° NNW
Okean 3 4.0 06:16:03 10° N 06:19:37 56° NNE 06:19:37 56° NNE
Okean 1-7 4.0 06:18:02 10° NNW 06:20:56 40° NW 06:20:56 40° NW
Cosmos 1302 Rocket 4.3 06:19:15 10° NNW 06:23:41 56° WNW 06:23:41 56° WNW
Cosmos 909 Rocket 4.1 06:32:17 57° SW 06:33:46 79° WNW 06:41:12 10° NNE
Cosmos 2219 3.3 06:34:37 58° W 06:35:18 63° WNW 06:41:02 10° NNE
UNK 3.9 06:36:39 64° ESE 06:37:03 68° ENE 06:41:43 10° N
Cosmos 1709 Rocket 4.5 06:37:29 43° W 06:38:21 45° WNW 06:44:25 10° N
Helios 1B rocket 3.0 06:34:58 10° NNE 06:38:41 52° E 06:38:41 52° E
Cosmos 1066 Rocket 4.2 06:35:22 10° NNW 06:41:11 67° W 06:41:47 62° SW
Timation 2 Rocket 3.8 06:46:12 58° SW 06:47:20 74° WNW 06:53:26 10° NNE
Cosmos 2084 Rocket 3.7 06:49:03 10° NW 06:52:38 62° NW 06:52:38 62° NW
IDEFIX/ARIANE 42P 3.9 06:48:53 10° NNE 06:53:29 31° E 06:55:37 23° SE
ATLAS 5 CENTAUR R/B 2.8 06:49:13 10° NW 06:54:21 43° WSW 06:54:21 43° WSW
Cosmos 2082 3.6 06:54:30 60° SSW 06:55:37 89° ESE 07:01:24 10° NNE
Cosmos 2251 Rocket 3.4 06:56:04 65° SSW 06:56:53 88° ESE 07:02:12 10° NNE
Meteor 1-11 Rocket 4.4 06:56:39 37° W 06:57:16 38° WNW 07:02:25 10° N
Cosmos 1536 4.3 06:58:20 26° NW 06:58:20 26° NW 07:01:01 10° NNW
Lacrosse 5 2.2 06:57:56 47° W 06:58:57 56° NW 07:03:57 10° NE
Cosmos 2184 Rocket 3.9 06:59:24 49° SSW 07:01:12 82° W 07:07:30 10° N
SL-16 R/B 2.5 07:00:09 49° SSW 07:01:46 67° WSW 07:07:56 10° NNW
Resurs 1-4 Rocket 2.3 06:57:23 10° N 07:02:34 54° WNW 07:03:26 48° WSW
Cosmos 1241 Rocket 4.5 07:05:27 46° SSW 07:07:37 89° WNW 07:14:11 10° NNE
Cosmos 2154 Rocket 4.0 07:05:52 39° S 07:08:19 78° E 07:14:32 10° N
Cosmos 1356 Rocket 4.5 07:08:36 32° SE 07:09:34 37° E 07:13:17 10° NNE
Cosmos 1733 Rocket 2.9 07:13:20 68° SW 07:13:46 75° W 07:18:14 10° N
SL-8 R/B 3.7 07:15:14 55° S 07:15:45 59° SE 07:20:30 10° ENE
Cosmos 1140 Rocket 4.1 07:14:54 33° SSE 07:16:52 50° ESE 07:21:56 10° NNE
Cosmos 2297 Rocket 3.7 07:18:52 20° W 07:20:55 24° NW 07:25:26 10° N
AQUA 4.1 07:16:17 10° N 07:20:55 53° WNW 07:21:46 46° WSW
NPP 4.1 07:17:35 10° N 07:22:43 46° WNW 07:24:07 37° WSW
Cosmos 2074 Rocket 4.3 07:23:14 38° SW 07:25:11 51° WNW 07:31:15 10° N
Cosmos 2237 Rocket 3.6 07:23:06 10° NW 07:26:22 21° W 07:26:22 21° W
ADEOS Rocket 3.0 07:29:11 39° SW 07:30:46 50° W 07:36:07 10° NNW
ARIANE 5 R/B 4.0 07:26:36 10° NNE 07:31:15 33° E 07:35:20 13° SSE
Okean 2 3.5 07:27:09 10° N 07:31:20 72° E 07:33:06 33° SSE
Cosmos 2227 Rocket 3.6 07:29:32 21° W 07:31:40 26° NW 07:36:20 10° N
CZ-2D R/B 3.4 07:36:12 10° N 07:40:37 27° WNW 07:42:21 22° W
Meteor 1-28 Rocket 3.1 07:41:29 54° SSW 07:42:03 64° W 07:45:46 10° NNW
ADEOS II 2.4 07:37:42 10° N 07:42:47 50° WNW 07:44:45 33° SW
Meteor 2-9 Rocket 4.3 07:43:10 35° SW 07:45:04 51° WNW 07:50:17 10° N
SL-8 Rocket 4.4 07:40:18 15° SSE 07:45:23 60° E 07:51:26 10° NNE
IRS-1D 3.6 07:41:44 10° N 07:46:38 61° WNW 07:48:42 34° SW
NOSS 3-3 (A) 3.8 07:44:35 31° SSW 07:47:26 80° ESE 07:53:48 10° NE
NOSS 3-3 (C) 3.8 07:44:42 31° SSW 07:47:32 79° ESE 07:53:53 10° NE
Cosmos 2227 4.3 07:45:48 27° S 07:48:55 73° ESE 07:54:31 10° NNE
Cosmos 1782 Rocket 4.3 07:46:19 18° SSE 07:49:15 48° E 07:53:28 10° NNE
IRS-1C 4.4 07:45:59 10° NNE 07:51:18 64° ESE 07:55:10 19° S
SL-16 R/B 2.6 07:46:15 10° NW 07:51:31 41° WSW 07:53:48 28° SSW
Iridium 4 Rocket 3.9 07:47:19 10° NNW 07:52:43 55° W 07:55:47 27° SSW
Cosmos 2263 Rocket 2.2 07:54:29 28° SSW 07:57:36 80° WNW 08:03:19 10° NNE
Cosmos 1975 3.7 07:57:17 30° WSW 07:58:07 33° WNW 08:01:51 10° NNW
ATLAS CENTAUR R/B 1.5 07:57:40 32° S 07:59:10 57° ESE 08:03:00 10° NE
Landsat 4 4.4 07:57:53 10° N 08:01:18 36° WNW 08:02:12 31° WSW
CZ-4C R/B 3.1 07:55:42 10° NNW 08:03:11 85° NE 08:11:45 10° SE
Cosmos 407 Rocket 3.8 08:01:06 27° SW 08:03:48 55° WNW 08:08:59 10° N
Cosmos 1461 3.6 08:05:09 27° WSW 08:07:20 47° NW 08:11:40 10° NNE
Cosmos 1707 2.8 08:04:30 10° NNW 08:08:15 53° W 08:10:01 27° SSW
Cosmos 2344 3.6 08:04:50 22° SW 08:09:59 74° NW 08:17:42 10° NNE
ALOS 4.3 08:07:21 10° NE 08:11:10 24° E 08:14:57 10° SSE
Cosmos 2341 Rocket 4.0 08:06:43 19° SSW 08:11:15 68° W 08:17:28 10° N
GEOS 3 Rocket 4.2 08:05:58 10° SE 08:11:15 64° NE 08:16:32 10° NNW
Spot 1 3.8 08:08:54 10° SSE 08:13:06 82° WSW 08:17:12 10° NNW
Cosmos 2218 Rocket 4.1 08:07:37 11° S 08:13:44 84° E 08:20:06 10° N
In-Cosmos 22 4.2 08:08:49 10° NNW 08:14:34 70° W 08:20:14 10° S
Cosmos 1238 Rocket 4.0 08:18:43 17° W 08:19:03 18° WNW 08:21:22 10° NNW
SL-08 R/B 3.5 08:15:26 10° SSE 08:20:21 79° ENE 08:25:20 10° N
Cosmos 1733 3.9 08:18:05 10° S 08:21:49 52° E 08:25:34 10° NNE
COSMOS 2441 4.5 08:17:21 10° N 08:22:06 61° WNW 08:25:38 18° SSW
Cosmos 1766 4.5 08:20:01 10° SSE 08:23:39 41° E 08:27:20 10° NNE
Cosmos 1300 Rocket 4.1 08:25:31 10° S 08:29:45 59° E 08:34:02 10° NNE
Cosmos 1943 3.2 08:25:31 10° NNW 08:31:15 81° WSW 08:36:56 10° SSE
IRS-P3 4.3 08:26:36 10° N 08:31:50 56° WNW 08:36:17 14° SW
BREEZE-M DEB (TANK) 3.6 08:30:27 16° W 08:32:10 33° NNW 08:34:22 10° NE
IDEFIX/ARIANE 42P 3.5 08:28:29 10° N 08:33:00 31° WNW 08:36:25 15° WSW
Cosmos 1975 Rocket 3.0 08:31:13 10° N 08:35:37 75° W 08:39:56 10° S
USA 290 4.2 08:33:02 10° N 08:36:00 33° ENE 08:38:58 10° SE
SL-24 R/B - RUBIN 2 4.2 08:31:52 10° NNW 08:36:48 63° NE 08:41:14 10° SE
CZ-3 Stage 3 3.3 08:34:45 10° S 08:36:52 15° SE 08:40:34 10° ESE
CZ-2C R/B 2.4 08:33:28 10° NNE 08:38:03 73° ESE 08:42:39 10° S
Cosmos 1340 2.7 08:36:49 10° NNW 08:40:29 55° W 08:44:09 10° S
USA 215 3.3 08:35:11 10° NE 08:41:46 84° SE 08:47:58 12° SW
Cosmos 1900 4.3 08:37:53 14° SSW 08:42:13 84° WNW 08:47:13 10° NNE
Lacrosse 5 4.1 08:39:32 10° WNW 08:42:55 18° NNW 08:46:18 10° NNE
Cosmos 1400 Rocket 2.7 08:40:33 11° SSW 08:44:18 70° W 08:48:12 10° N
Cosmos 1626 2.0 08:41:03 10° N 08:44:45 84° W 08:48:25 10° S
Cosmos 1674 3.3 08:47:13 10° NNW 08:50:48 38° W 08:54:21 10° SSW
Meteor 1-12 Rocket 4.5 08:45:18 10° SSW 08:50:48 55° WNW 08:56:25 10° N
Cosmos 1315 Rocket 4.3 08:48:05 10° SSE 08:51:54 39° E 08:55:42 10° NNE
BREEZE-M DEB (TANK) 4.2 08:48:08 10° W 08:55:55 40° NNW 08:58:47 10° NE
PSLV R/B 4.2 08:54:14 10° NNE 08:58:29 57° E 09:02:39 10° S
Cosmos 1850 Rocket 4.2 08:55:10 10° SSW 09:00:28 79° ESE 09:05:45 10° NNE
Meteor 2-5 Rocket 4.1 08:58:15 10° N 09:04:12 74° E 09:10:01 10° SSE
Cosmos 468 Rocket 4.0 09:00:01 10° NNW 09:05:21 88° WSW 09:10:36 10° SSE
CZ-4B R/B 4.1 09:01:11 10° N 09:05:38 37° WNW 09:09:59 10° SW
Cosmos 1821 Rocket 4.0 09:00:38 10° S 09:06:47 87° W 09:12:56 10° N
ASTRO E2 4.2 09:05:50 10° SW 09:08:51 21° S 09:11:53 10° SE
Cosmos 1025 Rocket 3.1 09:05:22 10° NNW 09:09:36 55° W 09:13:49 10° S
Cosmos 44 4.0 09:05:18 10° NW 09:09:57 34° WSW 09:14:19 10° S
ARIANE 5 R/B 3.5 09:05:46 10° N 09:10:14 31° WNW 09:14:44 10° SW
Cosmos 1844 Rocket 2.8 09:05:34 10° SSW 09:11:13 86° ESE 09:16:55 10° NNE
BREEZE-M DEB (TANK) 2.4 09:08:42 10° WNW 09:11:33 87° NNE 09:15:22 10° ESE
USA 267 4.5 09:07:40 10° ESE 09:13:50 47° NNE 09:20:03 10° NW
Iridium 51 4.1 09:10:35 10° SSW 09:13:57 52° W 09:17:22 10° N
FENGYUN 3A 3.7 09:12:06 10° N 09:17:31 68° WNW 09:22:52 10° SSW
CZ-3 R/B 3.9 09:20:20 10° SW 09:39:58 32° S 09:46:50 10° ESE
